Location: *
(45.9500°N, 9.0833°E)
Time: 02:21:03
(UTC+00:00)

SR - Pass Details

Date: 21 June 2021
Orbit: 577 x 878 km, 66.7° (Epoch: 23 July)

Event Time Altitude Azimuth Distance (km) Brightness Sun altitude
Rises 17:23:17 0° 258° (WSW) 3,470 ? 17.0°
Reaches altitude 10° 17:26:23 10° 273° (W) 2,529 ? 16.5°
Maximum altitude 17:30:53 22° 323° (NW) 1,798 ? 15.7°
Drops below altitude 10° 17:35:17 10° 13° (NNE) 2,463 ? 15.0°
Sets 17:38:16 0° 29° (NNE) 3,356 ? 14.5°
